Tracking 30923 objects as of 1-Jul-2025
HD Live streaming from Space Station
objects crossing your sky now

STARLINK-32348

Track STARLINK-32348 now!
10-day predictions
STARLINK-32348 is classified as:


NORAD ID: 61631
Int'l Code: 2024-191L
Perigee: 489.1 km
Apogee: 491.2 km
Inclination: 43.0 °
Period: 94.3 minutes
Semi major axis: 6861 km
RCS: Unknown
Launch date: October 23, 2024
Source: United States (US)
Launch site: AIR FORCE EASTERN TEST RANGE (AFETR)
Your satellite tracking list
Your tracking list is empty




NASA's NSSDC Master Catalog

Two Line Element Set (TLE):
1 61631U 24191L   25181.61363554  .00001008  00000-0  46145-4 0  9997
2 61631  43.0032 141.6463 0001541 264.3419  95.7257 15.27583285 39649
Source of the keplerian elements: AFSPC